Wind_Speed
82 86 83 77 80 79 88 89 83 78 79 85 82 83 87 86 82 78 66 73 79 81 79 71 74 68 63 61 56 54 53 49 49 44 48 46 46 40 33 29 29 30 31 34
78 85 78 79 86 87 91 88 84 83 85 88 84 82 85 95 88 83 79 74 75 82 83 73 67 62 57 66 62 56 59 55 50 50 46 47 47 44 40 35 32 32 35 34
78 73 77 81 86 90 90 89 83 81 88 90 92 90 90 94 94 90 86 79 79 81 82 72 71 61 60 58 62 64 59 58 56 54 53 42 39 40 47 45 41 35 38 38
64 70 72 76 82 87 89 82 86 90 93 94 92 86 90 91 96 95 88 84 77 77 77 76 70 69 64 64 64 64 68 63 59 56 56 54 46 43 42 42 46 40 42 42
57 52 52 69 73 85 80 85 92 94 97 94 98 94 89 91 91 93 88 83 80 77 78 74 71 67 72 65 67 65 63 66 66 58 58 58 56 51 46 49 42 38 45 46
44 41 44 56 65 82 82 92 98 103 102 104 96 95 89 93 89 86 90 89 86 84 78 78 78 74 70 72 68 65 60 64 66 62 60 58 56 58 55 55 48 43 41 46
33 39 47 54 62 76 89 95 101 108 109 102 92 98 86 89 87 85 88 97 91 88 83 81 80 76 71 70 71 67 63 57 62 56 58 59 56 55 55 54 52 53 53 52
29 39 47 53 63 78 88 97 99 104 106 94 93 100 84 86 87 87 88 94 94 89 86 83 82 74 76 76 75 72 68 62 60 63 63 57 59 60 61 60 61 55 54 57
31 43 46 51 64 76 83 94 96 100 99 97 99 95 89 85 83 88 87 87 92 92 88 87 81 77 80 77 74 74 70 68 65 59 55 58 62 63 62 62 65 66 65 63
33 40 46 56 66 76 88 91 95 99 98 100 100 97 91 90 86 84 81 85 87 93 94 88 85 78 78 79 76 74 76 69 69 64 61 59 59 62 63 66 68 71 70 66
32 41 47 56 67 75 82 88 95 97 98 98 98 97 92 93 87 82 84 84 88 89 95 94 92 83 76 77 83 78 78 74 66 61 62 59 56 55 62 67 67 69 68 64
30 41 49 55 65 74 80 87 93 96 97 95 96 96 95 93 88 84 85 88 87 86 84 93 91 84 79 77 81 84 79 74 69 65 56 54 47 49 48 49 60 65 63 61
26 40 51 56 64 72 80 86 92 94 92 88 92 98 97 92 87 86 87 88 86 81 78 80 90 82 81 85 84 84 82 75 74 68 46 44 45 40 46 46 52 56 55 59
26 38 49 56 61 70 78 84 89 92 92 91 92 93 98 95 90 88 86 88 87 81 79 80 89 85 89 82 88 89 84 79 65 61 57 51 51 61 46 44 51 56 53 56
27 34 49 57 63 65 76 83 86 90 92 92 91 92 95 96 92 89 87 87 87 85 83 83 89 98 97 90 90 92 89 93 74 66 62 64 56 55 59 58 65 57 59 53
29 32 47 58 62 67 75 82 86 89 90 91 91 93 96 98 97 92 88 87 87 87 86 85 85 90 102 100 98 96 90 91 84 74 72 67 74 70 76 66 68 51 52 58
26 35 39 56 62 66 76 80 83 87 94 94 93 94 97 97 96 96 91 87 86 87 87 86 85 87 91 100 103 94 99 95 86 91 75 75 86 78 69 69 72 73 77 72
32 33 40 50 58 68 75 83 84 86 91 95 96 99 99 103 100 96 96 93 89 89 90 88 87 86 88 90 96 103 99 104 96 90 84 78 87 88 86 75 73 81 83 81
40 37 40 50 53 67 76 79 86 88 91 98 101 102 104 108 110 102 97 96 94 94 94 93 92 90 89 90 92 97 107 109 109 111 106 99 89 86 85 90 75 85 88 91
35 43 43 48 58 63 70 78 83 87 91 94 99 103 106 110 112 113 106 101 99 96 97 98 96 94 94 93 94 96 100 111 114 113 110 102 104 93 87 95 85 83 91 94
49 42 49 55 57 63 69 75 83 89 93 96 99 105 109 112 114 114 114 111 105 104 102 101 101 101 97 94 94 96 100 104 111 117 119 117 111 119 108 94 96 92 95 99
53 50 51 60 63 67 70 73 81 90 95 98 103 109 114 117 117 117 116 116 113 111 108 106 105 104 103 100 98 97 98 101 105 109 113 117 117 127 129 125 122 123 119 113
50 52 51 58 68 67 71 77 80 89 95 97 100 108 116 120 120 120 119 118 119 119 118 117 114 109 108 106 104 104 102 102 102 102 103 104 104 111 121 131 134 133 130 128
44 49 50 55 65 70 69 76 83 87 92 99 103 108 114 122 123 121 120 119 121 121 120 122 120 115 113 113 112 109 108 108 108 106 104 103 103 106 106 110 114 120 123 125
38 41 45 49 62 65 69 74 81 87 91 98 106 109 111 121 127 127 125 123 122 123 123 122 121 120 116 114 115 113 112 111 109 109 108 107 108 106 106 108 108 108 109 114
31 33 35 43 52 59 65 71 76 84 93 99 103 106 110 115 126 129 129 129 125 126 125 125 122 120 121 120 116 116 116 116 113 112 111 111 110 110 111 110 109 109 108 107
Wind_Direction
254 246 244 239 234 228 226 224 220 219 224 225 226 222 226 227 225 218 212 214 221 212 217 219 222 225 225 225 220 221 219 226 223 230 233 224 228 233 235 243 247 245 249 250
254 251 244 237 230 225 224 223 217 218 222 226 224 220 223 227 223 221 216 212 217 219 215 217 220 220 223 226 225 222 225 223 223 219 231 234 234 232 236 239 239 244 249 250
257 255 245 235 230 224 221 219 217 214 222 226 223 219 221 224 222 221 218 211 211 220 213 214 221 219 219 218 225 223 222 225 221 222 219 222 240 247 238 240 241 236 248 251
263 252 245 236 225 223 219 215 214 213 219 224 225 219 222 225 223 221 219 217 213 218 221 211 218 221 219 222 221 226 225 226 227 228 224 221 224 232 247 246 244 247 248 247
259 257 243 234 224 220 212 213 213 214 216 221 225 222 219 223 225 223 221 218 217 218 220 216 212 219 223 222 224 224 229 224 227 225 231 229 228 230 233 239 242 253 249 253
256 249 238 228 219 216 206 210 211 213 214 218 222 223 219 222 223 223 222 219 219 218 217 219 212 211 216 223 225 229 228 228 229 227 228 229 231 232 236 240 237 246 250 255
250 233 224 217 210 211 211 208 210 213 214 215 220 226 218 221 221 223 224 221 217 219 219 218 219 209 215 221 227 227 231 231 231 229 230 233 232 238 243 245 245 244 242 251
238 222 218 213 205 208 208 211 212 215 215 212 218 228 218 222 220 220 225 224 217 217 220 218 223 213 213 220 222 229 228 229 234 237 237 233 235 237 240 246 247 245 249 250
224 221 213 212 208 208 209 212 213 214 216 212 217 223 220 221 220 220 223 227 221 218 219 221 220 221 215 218 223 224 231 231 229 231 234 238 241 243 246 248 250 251 251 254
226 216 211 207 209 208 209 211 213 215 215 211 216 221 220 222 219 218 220 226 225 219 218 220 222 221 223 217 222 226 228 229 231 230 232 237 241 250 257 261 261 259 257 260
228 218 214 209 208 209 212 211 213 214 215 213 214 220 220 223 222 217 218 220 225 220 217 218 220 218 221 225 221 225 229 228 229 231 236 237 242 251 257 261 264 261 259 258
229 218 214 212 209 208 212 213 213 215 214 215 215 219 219 221 222 221 222 221 223 224 219 218 219 220 218 224 227 225 225 226 230 230 233 240 249 251 257 255 260 253 255 261
236 221 218 213 211 210 211 213 213 214 216 217 216 218 221 221 222 221 222 223 223 223 222 218 218 220 221 223 226 225 223 226 228 228 222 215 253 244 251 251 252 261 265 266
247 222 221 218 216 213 214 213 214 215 215 215 217 217 222 222 221 222 222 223 222 220 219 217 213 216 219 219 222 225 224 222 221 212 218 201 222 249 243 238 253 252 255 258
251 231 221 221 217 218 216 216 216 216 217 215 216 218 221 223 222 224 223 223 223 222 219 218 219 217 217 218 221 222 222 219 217 214 216 209 210 213 236 230 235 240 254 251
252 240 227 222 223 216 219 220 217 218 219 217 217 218 220 222 221 223 224 224 224 223 223 223 221 222 220 221 222 220 221 219 216 227 214 209 211 222 223 221 219 232 220 226
253 246 234 230 221 222 220 221 220 218 219 219 218 219 221 221 223 223 223 224 224 225 224 224 225 225 224 225 225 222 221 221 220 221 208 215 220 224 217 219 209 227 232 233
261 243 239 237 225 222 223 223 222 219 218 220 219 219 220 220 220 223 223 223 221 222 224 224 223 225 227 226 226 223 222 224 221 212 212 218 223 224 222 218 223 217 228 234
261 252 236 233 233 229 225 224 224 223 219 220 220 221 219 221 220 218 221 224 224 222 221 223 223 222 223 225 225 224 223 224 223 220 223 223 221 226 226 221 218 221 226 231
252 251 245 235 234 230 231 227 225 226 225 219 222 223 222 223 223 221 218 220 224 225 224 222 222 223 223 223 223 223 222 224 226 226 227 225 221 222 222 219 220 229 235 232
270 250 244 244 233 235 232 228 226 226 227 224 218 223 225 224 225 223 223 221 221 224 225 224 222 222 223 224 224 223 223 224 226 226 227 225 223 227 226 223 223 229 234 234
264 259 245 240 239 231 230 230 227 227 226 226 223 219 223 226 226 226 224 223 222 222 224 225 223 223 223 223 224 225 225 226 227 228 229 231 228 227 231 233 232 236 238 240
263 259 251 241 239 237 229 229 228 227 227 227 225 224 223 228 228 228 227 226 226 226 224 224 223 221 222 224 225 225 226 227 228 230 231 233 235 236 236 235 239 241 243 246
262 256 250 240 240 239 233 229 229 228 226 226 226 226 224 225 230 230 230 228 230 230 229 230 228 225 223 223 224 225 227 229 228 230 231 232 234 236 238 241 242 244 245 246
272 263 252 246 242 239 236 231 229 229 228 226 226 226 225 226 228 230 230 230 229 230 234 233 233 231 229 227 226 226 227 229 231 231 233 234 235 237 239 240 243 245 247 248
279 264 253 246 243 242 239 236 232 229 227 228 228 229 226 226 229 231 230 231 232 231 231 234 234 234 235 231 231 231 229 230 231 233 235 236 237 239 240 242 243 244 246 248
Height
10434 10432 10450 10476 10483 10509 10503 10518 10541 10558 10549 10553 10571 10592 10598 10606 10618 10635 10653 10660 10665 10680 10686 10696 10703 10715 10726 10733 10743 10745 10753 10760 10767 10773 10776 10780 10786 10792 10796 10800 10803 10807 10807 10811
10406 10405 10433 10445 10447 10465 10480 10499 10524 10532 10532 10533 10554 10571 10578 10576 10600 10616 10631 10643 10654 10659 10677 10692 10696 10709 10716 10721 10729 10740 10746 10751 10757 10760 10767 10773 10779 10784 10788 10791 10793 10798 10798 10804
10376 10397 10401 10406 10419 10436 10456 10481 10509 10524 10512 10511 10522 10541 10549 10559 10580 10592 10610 10627 10635 10645 10665 10681 10688 10696 10703 10711 10717 10725 10731 10737 10743 10748 10755 10763 10771 10776 10779 10780 10783 10790 10790 10795
10356 10357 10367 10376 10395 10414 10435 10474 10482 10488 10483 10492 10508 10533 10539 10547 10560 10575 10597 10611 10628 10637 10652 10669 10676 10685 10691 10698 10703 10711 10719 10727 10733 10741 10747 10752 10757 10762 10767 10774 10779 10783 10783 10785
10325 10335 10343 10352 10377 10388 10433 10441 10452 10461 10461 10476 10475 10503 10526 10529 10542 10566 10588 10607 10619 10626 10637 10653 10667 10675 10677 10685 10692 10698 10706 10715 10722 10733 10737 10744 10749 10751 10755 10762 10767 10772 10774 10773
10310 10316 10322 10334 10357 10370 10404 10402 10418 10423 10436 10434 10463 10482 10508 10516 10538 10557 10571 10586 10598 10609 10624 10635 10649 10658 10663 10671 10678 10687 10697 10705 10714 10722 10729 10734 10740 10743 10747 10750 10755 10760 10765 10764
10296 10298 10302 10314 10333 10354 10366 10380 10392 10394 10404 10434 10462 10461 10501 10508 10527 10541 10547 10558 10580 10595 10608 10621 10627 10650 10658 10662 10668 10677 10685 10696 10702 10709 10717 10721 10730 10734 10736 10741 10745 10749 10753 10754
10284 10285 10290 10301 10316 10329 10344 10362 10378 10388 10402 10444 10448 10436 10493 10494 10508 10522 10527 10541 10564 10580 10594 10606 10615 10638 10645 10648 10654 10663 10672 10682 10689 10698 10706 10712 10718 10724 10725 10728 10731 10736 10740 10744
10273 10273 10282 10296 10305 10317 10334 10344 10368 10376 10395 10424 10425 10433 10464 10480 10495 10504 10518 10529 10550 10567 10581 10592 10605 10621 10630 10637 10645 10653 10658 10668 10676 10684 10691 10699 10704 10711 10715 10719 10721 10725 10731 10732
10265 10267 10276 10285 10294 10306 10312 10330 10347 10360 10376 10401 10409 10423 10448 10458 10472 10492 10509 10514 10528 10547 10562 10577 10588 10606 10615 10626 10632 10640 10644 10650 10657 10670 10679 10687 10693 10700 10704 10707 10711 10713 10719 10721
10258 10262 10267 10275 10285 10295 10306 10322 10331 10345 10363 10385 10399 10410 10429 10439 10457 10475 10486 10497 10504 10524 10542 10557 10565 10588 10599 10605 10616 10620 10626 10638 10647 10661 10668 10676 10684 10689 10691 10693 10696 10698 10705 10709
10253 10256 10258 10268 10276 10284 10296 10310 10322 10332 10350 10370 10392 10398 10407 10420 10441 10457 10470 10481 10492 10510 10529 10543 10557 10573 10586 10591 10595 10605 10614 10625 10637 10649 10659 10667 10673 10674 10677 10675 10678 10681 10689 10695
10247 10250 10252 10258 10265 10274 10283 10297 10308 10322 10342 10363 10378 10379 10389 10408 10428 10438 10449 10462 10479 10500 10518 10533 10547 10560 10570 10575 10578 10588 10602 10614 10622 10636 10647 10651 10663 10663 10664 10662 10666 10669 10675 10680
10238 10243 10245 10250 10257 10265 10273 10285 10296 10309 10325 10341 10354 10369 10371 10386 10408 10423 10438 10447 10462 10483 10499 10511 10525 10535 10544 10555 10559 10571 10588 10600 10609 10619 10629 10634 10648 10658 10652 10652 10655 10658 10661 10663
10230 10232 10236 10241 10247 10256 10264 10271 10283 10296 10308 10324 10339 10351 10355 10370 10391 10405 10424 10437 10451 10467 10479 10489 10500 10511 10518 10531 10542 10553 10566 10579 10594 10601 10611 10617 10621 10614 10634 10639 10648 10650 10649 10649
10221 10224 10225 10228 10237 10245 10249 10257 10268 10280 10293 10308 10323 10332 10338 10347 10367 10385 10400 10419 10434 10451 10465 10475 10484 10495 10505 10512 10523 10536 10549 10561 10575 10584 10593 10595 10603 10607 10617 10618 10627 10632 10637 10635
10210 10210 10214 10215 10223 10232 10233 10243 10250 10264 10275 10289 10303 10315 10320 10331 10348 10365 10382 10399 10415 10430 10444 10459 10468 10475 10484 10495 10506 10521 10534 10545 10558 10566 10572 10578 10580 10587 10595 10600 10607 10612 10616 10621
10194 10197 10200 10199 10208 10212 10217 10218 10229 10243 10257 10270 10282 10289 10301 10309 10322 10342 10358 10373 10390 10403 10416 10432 10446 10456 10464 10474 10486 10501 10515 10525 10539 10547 10553 10562 10564 10570 10579 10580 10587 10593 10595 10596
10177 10181 10184 10183 10189 10191 10196 10208 10214 10228 10238 10246 10256 10269 10281 10284 10296 10313 10332 10349 10362 10375 10389 10403 10418 10431 10439 10446 10459 10473 10490 10499 10509 10520 10532 10543 10549 10554 10558 10564 10570 10576 10578 10580
10162 10162 10164 10167 10167 10170 10177 10192 10203 10214 10216 10229 10242 10252 10260 10266 10277 10292 10307 10321 10336 10351 10363 10377 10391 10404 10415 10422 10435 10449 10463 10471 10483 10500 10511 10522 10531 10536 10540 10544 10548 10557 10560 10562
10132 10143 10143 10141 10147 10152 10155 10166 10177 10185 10197 10206 10219 10229 10234 10246 10252 10269 10288 10299 10313 10323 10336 10353 10367 10379 10390 10401 10413 10424 10435 10444 10457 10471 10482 10495 10508 10513 10521 10523 10527 10532 10540 10544
10105 10112 10118 10117 10120 10123 10133 10142 10151 10158 10169 10180 10190 10201 10206 10212 10227 10240 10260 10274 10285 10294 10308 10320 10339 10356 10368 10379 10390 10400 10410 10420 10429 10442 10454 10464 10477 10487 10492 10499 10506 10511 10517 10526
10083 10084 10090 10092 10091 10098 10109 10113 10122 10130 10142 10155 10169 10177 10185 10189 10204 10218 10234 10250 10262 10271 10280 10289 10305 10325 10339 10353 10365 10377 10386 10395 10405 10415 10426 10437 10445 10455 10465 10473 10478 10484 10490 10495
10062 10059 10064 10066 10063 10067 10083 10091 10095 10102 10114 10126 10136 10143 10160 10167 10175 10194 10211 10229 10237 10249 10263 10271 10285 10300 10314 10325 10336 10350 10363 10373 10382 10390 10401 10412 10419 10428 10435 10443 10451 10458 10463 10470
10041 10040 10043 10047 10040 10047 10055 10063 10071 10079 10087 10095 10103 10114 10131 10141 10147 10159 10176 10193 10209 10222 10236 10252 10264 10279 10293 10305 10315 10328 10339 10349 10360 10370 10376 10383 10391 10400 10408 10417 10425 10432 10438 10443
10020 10019 10022 10025 10024 10028 10035 10040 10047 10053 10059 10065 10075 10087 10102 10116 10121 10127 10145 10159 10175 10190 10207 10220 10235 10253 10265 10281 10294 10304 10315 10327 10337 10347 10356 10365 10372 10379 10387 10397 10405 10412 10418 10422